Regional Weather Roundup
Issued by NWS Sterling, VA

Home | Current Version | Previous Version | Text Only | Print | Product List | Glossary On
Versions: 1 2 3 4 5 6 7 8 9 10 11 12 13 14 15 16 17 18 19 20 21 22 23 24 25 26 27 28 29 30 31 32 33 34 35 36 37 38 39 40 41 42 43 44 45 46 47 48 49 50
131
ASUS41 KLWX 170411
RWRLWX

REGIONAL WEATHER ROUNDUP
NATIONAL WEATHER SERVICE BALTIMORE MD/WASHINGTON DC
1200 AM EDT THU AUG 17 2017

Note: "FAIR" indicates few or no clouds below 12,000 feet
with no significant weather and/or obstructions to visibility.
 TC=TEMPERATURE CELSIUS

 * =Non NWS site. Station does not report precipitation (e.g. rain,
    snow, etc.), thunder, or fog.

DCZ001-MDZ009-015-VAZ040>042-051-053>054-170500-
WASHINGTON METRO

CITY           SKY/WX    TMP DP  RH WIND       PRES   REMARKS
WASHINGTON NAT CLOUDY    81  76  84 SE3       30.03S
DULLES         CLOUDY    75  72  90 CALM      30.04S
ANDREWS AFB    PTCLDY    77  74  90 SE6       30.02F
FT BELVOIR     CLOUDY    76  73  87 CALM      30.02F
QUANTICO       CLOUDY    78  76  93 CALM      30.04R
COLLEGE PARK*  PTCLDY    73  71  92 CALM      30.03S
LEESBURG*      CLOUDY    77  73  88 CALM      30.06S
MANASSAS*      PTCLDY    74  70  87 CALM      30.03F
GAITHERSBURG*  CLEAR     69  68  96 CALM      30.06S

$$

MDZ006>007-011-014-170500-
BALTIMORE METRO

CITY           SKY/WX    TMP DP  RH WIND       PRES   REMARKS
BWI AIRPORT    PTCLDY    72  71  97 CALM      30.03S
MD SCIENCE CTR   N/A     80  71  74 MISG      30.03R
MARTIN STATE   CLEAR     73  73 100 CALM      30.04S FOG
ANNAPOLIS      CLEAR     78  78 100 CALM      30.02S
FORT MEADE*    PTCLDY    70  68  94 CALM      30.06S

$$

MDZ012-015-019>023-170500-
MARYLAND EASTERN SHORE

CITY           SKY/WX    TMP DP  RH WIND       PRES   REMARKS
OCEAN CITY     CLOUDY    75  73  93 W5        30.04S
SALISBURY      CLOUDY    74  71  91 S3        30.03R
BAY BRIDGE AP* CLEAR     75  72  88 E3        30.03S
CAMBRIDGE*     CLOUDY    73  70  88 CALM      30.03S
EASTON*        CLEAR     73  71  91 CALM      30.07S

$$

MDZ017>025-170500-
SOUTHERN MARYLAND

CITY           SKY/WX    TMP DP  RH WIND       PRES   REMARKS
PATUXENT RIVER MOCLDY    76  74  93 CALM      30.03R
ST INIGOES     PTCLDY    75  73  93 CALM      30.02S
LEONARDTOWN*   CLOUDY    77  72  83 CALM      30.04F

$$

MDZ003>005-170500-
NORTH CENTRAL MARYLAND

CITY           SKY/WX    TMP DP  RH WIND       PRES   REMARKS
FREDERICK*     CLEAR     70  70 100 CALM      30.07S FOG
HAGERSTOWN APT CLEAR     74  66  76 CALM      30.06R
WESTMINSTER*   CLEAR     72  66  83 CALM      30.06S

$$

MDZ501>502-170500-
WESTERN MARYLAND

CITY           SKY/WX    TMP DP  RH WIND       PRES   REMARKS
OAKLAND*       CLEAR     63  59  88 SE5       30.14F
CUMBERLAND*    CLEAR     72  68  88 N5        30.11S

$$

VAZ025>031-170500-
SHENANDOAH VALLEY

CITY           SKY/WX    TMP DP  RH WIND       PRES   REMARKS
WINCHESTER*    CLEAR     70  68  94 CALM      30.05F
FRONT ROYAL*   PTCLDY    72  72 100 CALM      30.05S
LURAY*         CLOUDY    73  72  94 CALM      30.06F
NEW MARKET*    CLOUDY    72  70  94 CALM      30.06S
STAUNTON*      PTCLDY    69  67  94 CALM      30.10S
WAYNESBORO*    CLEAR     72  70  93 CALM      30.09S

$$

WVZ021-048>050-054>055-170500-
EASTERN WEST VIRGINIA PANHANDLE

CITY           SKY/WX    TMP DP  RH WIND       PRES   REMARKS
MARTINSBURG    NOT AVBL
PETERSBURG*    CLEAR     71  71  99 CALM      30.09S FOG

$$

VAZ036>039-050-170500-
CENTRAL FOOTHILLS

CITY           SKY/WX    TMP DP  RH WIND       PRES   REMARKS
CHARLOTTESVILL CLEAR     75  70  84 N3        30.05S
CULPEPER*      MOCLDY    74  72  96 CALM      30.05S
ORANGE*        CLOUDY    72  70  94 CALM      30.04F
GORDONSVILLE*  CLEAR     73  73 100 CALM      30.04S FOG
WARRENTON*     NOT AVBL

$$

VAZ055>057-170500-
NORTH AND CENTRAL PIEDMONT

CITY           SKY/WX    TMP DP  RH WIND       PRES   REMARKS
FREDERICKSBRG* CLOUDY    77  77  98 NW6       30.03R
STAFFORD*      CLOUDY    74  74 100 CALM      30.08S

$$

NCZ024-NYZ072-PAZ021-071-VAZ022-071-170500-
OTHER REGIONAL OBSERVATIONS

CITY           SKY/WX    TMP DP  RH WIND       PRES   REMARKS
NEW YORK CITY  CLEAR     76  62  62 MISG      30.04S
PHILADELPHIA   PTCLDY    76  69  79 CALM      30.02S
PITTSBURGH     PTCLDY    72  62  71 CALM      30.06S
ROANOKE        PTCLDY    76  69  79 CALM      30.09S
RICHMOND       PTCLDY    75  73  93 S5        30.03S
RALEIGH        CLOUDY    80  73  79 S3        30.05F

$$

ANZ530>537-170500-
MARINE OBSERVATIONS

STATION/POSITION TIME  TEMP    WIND        PRES
                       AIR SEA DIR/SP/G
                 (UTC) (F)     (DEG/KT/KT) (MB)
THOMAS PT LIGHT  0400   80 81  140/  8/  9   N/A
BALT KEY BRIDGE  0342   79     150/  3/  4 1016.6R
COVE POINT       0342   80     140/  5/  7 1017.6S
LEWISETTA        0342   78 83  200/  6/  7 1016.7S
SOLOMONS ISLAND  0342   80 82  120/  3/  4   N/A
PINEY POINT      0348          200/  8/  9   N/A

$$





USA.gov is the U.S. government's official web portal to all federal, state and local government web resources and services.